Skip Page Navigation
NASA JPL Caltech
NASA Logo - Jet Propulsion Laboratory + View the NASA Portal
+ Center for Near-Earth Object Studies
JPL Home Earth Solar System Stars & Galaxies Technology
JPL Solar System Dynamics
BODIES ORBITS EPHEMERIDES TOOLS PHYSICAL DATA DISCOVERY FAQ SITE MAP
IMPORTANT: The SSD Announcement email list is now available. Major changes are coming in the near future, including possible hostname and/or URL changes. To be notified of such changes, subscribe to this email list.

Please visit this page for more details.


JPL Small-Body Database Browser
Search: [ help ]  
447214 (2005 TY96)
Classification: Main-belt Asteroid          SPK-ID: 2447214
Ephemeris | Orbit Diagram | Orbital Elements | Mission Design | Physical Parameters | Discovery Circumstances | Close-Approach Data ]

[ show orbit diagram ]
Orbital Elements at Epoch 2458600.5 (2019-Apr-27.0) TDB
Reference: JPL 10 (heliocentric ecliptic J2000)
 Element Value Uncertainty (1-sigma)   Units 
e .09669971744512613 1.3821e-07  
a 2.9802322225857 5.7704e-08 au
q 2.692044608740802 4.1956e-07 au
i 8.389968953438949 1.0421e-05 deg
node 220.5629120104861 7.0912e-05 deg
peri 233.9825379185062 0.00016708 deg
M 174.2181039714472 0.00013785 deg
tp 2457691.080278210064
(2016-Oct-29.58027821)
0.00071987 TDB
period 1879.20251903346
5.14
5.4578e-05
1.494e-07
d
yr
n .1915706244291119 5.5638e-09 deg/d
Q 3.268419836430597 6.3283e-08 au
  Orbit Determination Parameters
   # obs. used (total)      80  
   data-arc span      4133 days (11.32 yr)  
   first obs. used      2005-10-06  
   last obs. used      2017-01-29  
   planetary ephem.      DE431  
   SB-pert. ephem.      SB431-N16  
   condition code      0  
   norm. resid. RMS      .62264  
   source      ORB  
   producer      Otto Matic  
   solution date      2018-Oct-04 12:19:35  

Additional Information
 Earth MOID = 1.71886 au 
 Jupiter MOID = 1.98209 au 
 T_jup = 3.236 
[ show covariance matrix ]

Ephemeris | Orbit Diagram | Orbital Elements | Mission Design | Physical Parameters | Discovery Circumstances | Close-Approach Data ]

Physical Parameter Table
Parameter Symbol Value Units Sigma Reference Notes
absolute magnitude H 16.7   n/a MPO357070  
diameter diameter 3.286 km 0.493 urn:nasa:pds:neowise_diameters_albedos::2.0[mainbelt] (http://adsabs.harvard.edu/abs/2011ApJ...741...68M)  
geometric albedo albedo 0.037   0.008 urn:nasa:pds:neowise_diameters_albedos::2.0[mainbelt] (http://adsabs.harvard.edu/abs/2011ApJ...741...68M)  

447214 (2005 TY96)          Discovered 2005-Oct-06 by Mt. Lemmon Survey at Mount Lemmon
Reference: Last Updated: 2015-10-28

[ show close-approach data ]
Ephemeris | Orbit Diagram | Orbital Elements | Mission Design | Physical Parameters | Discovery Circumstances | Close-Approach Data ]
ABOUT SSD CREDITS/AWARDS PRIVACY/COPYRIGHT GLOSSARY LINKS
FirstGov
(server date/time)  
NASA Home Page
Site Manager:   Ryan S. Park
Webmaster  Alan B. Chamberlin